Temperature
19 17 17 18 18 20 20 20 20 21 22 21 21 20 20 20 20 20 20 20 20 21 21 21 21 20 20 20 20 19 19 19 18 18 18 17 17 17 17 17 17 16 16 16
17 18 18 19 19 20 20 20 20 20 21 22 21 20 20 19 19 20 20 20 20 20 20 20 20 20 20 20 20 19 18 18 18 18 18 17 17 17 17 17 16 16 16 16
18 19 19 20 20 20 20 20 20 20 21 21 21 20 20 20 20 20 20 20 20 20 20 20 20 20 20 20 19 19 18 18 18 18 17 17 16 16 16 16 16 16 16 16
18 19 20 20 20 20 19 20 20 21 20 19 20 19 19 19 19 19 19 19 19 20 20 20 20 20 20 20 19 19 18 18 18 17 17 17 16 16 16 16 16 16 16 16
19 19 20 20 20 20 20 20 20 20 19 18 19 19 18 18 19 18 18 19 20 20 20 20 20 20 20 19 19 19 18 18 18 17 17 17 16 16 16 16 16 16 16 16
19 20 20 20 21 21 20 19 18 16 16 18 18 18 18 17 18 18 18 19 19 19 19 20 20 19 19 19 19 18 18 18 18 17 17 16 16 16 16 16 16 16 16 16
19 20 20 21 21 21 19 18 17 18 16 17 18 18 18 18 18 18 18 19 19 19 19 19 19 19 19 19 19 18 18 18 17 17 17 16 16 16 16 16 16 16 16 16
18 18 20 20 20 19 18 18 17 18 17 17 17 18 18 18 19 19 19 19 19 19 19 19 19 19 19 18 18 18 18 17 17 17 17 16 16 16 16 16 16 16 16 16
17 18 20 20 20 19 18 17 17 16 17 17 17 17 18 18 18 17 17 17 18 18 18 19 19 19 18 18 18 18 18 17 17 17 16 16 16 16 16 15 16 16 15 15
17 18 19 20 20 19 18 16 15 16 16 17 18 18 18 18 18 17 16 17 17 18 18 18 19 19 18 18 18 17 17 17 17 16 16 16 16 15 15 15 15 15 15 15
17 17 18 19 19 19 18 17 15 14 15 16 17 17 18 17 17 16 16 17 17 17 18 18 18 18 18 17 17 17 17 17 16 16 16 16 16 15 15 15 15 15 15 15
16 15 16 17 18 19 18 17 15 16 16 15 16 17 18 16 16 16 16 16 17 17 18 18 18 18 17 17 17 17 17 17 16 16 16 16 16 15 15 15 15 15 15 15
16 15 16 17 17 18 18 17 16 15 14 14 16 17 17 16 16 16 16 16 17 17 17 17 18 17 17 17 16 16 16 16 16 16 16 15 15 15 15 15 15 15 15 15
16 14 15 16 16 17 17 17 16 15 15 15 16 17 17 16 15 15 16 16 16 17 17 17 17 17 17 17 16 16 16 16 16 16 15 15 15 15 15 15 15 14 14 14
15 15 15 16 17 17 17 18 17 16 16 16 16 16 17 16 15 15 15 15 16 16 16 16 17 17 17 17 16 16 16 16 16 15 15 15 15 15 15 14 14 14 14 14
13 14 15 16 17 17 17 17 17 17 17 17 17 16 15 15 15 15 15 15 15 15 16 16 16 16 17 16 16 16 16 16 15 15 15 15 15 14 14 14 14 14 14 14
12 13 14 15 16 17 16 17 17 17 16 16 16 16 15 14 14 14 15 15 15 15 16 16 16 16 16 16 16 16 16 15 15 15 15 15 14 14 14 14 14 14 14 14
12 12 12 13 15 16 16 16 17 16 15 15 15 15 14 14 15 15 15 15 15 15 16 16 16 16 16 16 16 16 15 15 15 15 15 14 14 14 14 14 14 14 14 13
11 11 11 12 14 15 16 16 15 15 15 14 14 14 14 14 14 14 15 16 16 16 16 16 16 16 16 16 15 15 15 15 15 15 14 14 14 14 14 14 14 14 13 13
11 11 11 12 14 14 15 16 16 16 15 14 14 13 13 14 14 14 16 16 16 16 16 16 16 15 15 15 15 15 15 15 15 14 14 14 14 14 14 13 13 13 13 13
11 11 12 12 13 14 14 15 15 15 15 14 14 13 13 13 14 15 16 15 16 15 15 15 15 15 15 15 14 14 14 14 14 14 14 14 14 14 13 13 13 13 13 13
11 11 11 11 13 14 14 14 14 13 14 14 14 14 14 14 14 15 15 15 15 15 15 15 15 15 14 14 14 14 14 14 14 14 14 14 13 13 13 13 13 13 13 13
10 11 10 11 12 12 12 13 14 14 13 13 14 14 14 14 14 14 14 14 14 14 14 14 14 14 14 14 14 14 14 14 14 13 13 13 13 13 13 13 13 13 12 12
11 10 10 11 11 12 12 13 14 14 14 14 14 14 14 14 14 14 14 14 14 14 14 14 14 14 14 14 14 14 14 14 13 13 13 13 13 13 13 13 13 13 12 12
10 10 10 10 11 12 12 13 13 14 14 14 14 14 14 14 14 14 13 13 13 14 14 14 14 14 14 13 13 13 13 13 13 13 13 13 13 13 13 13 12 12 12 12
9 9 10 10 11 11 12 13 13 13 13 13 13 13 13 14 13 13 13 13 13 13 14 14 13 13 13 13 13 13 13 13 13 13 13 13 12 12 12 12 12 12 12 12
Wind_Speed
3 4 5 8 8 6 5 3 4 6 3 2 5 6 7 4 6 7 7 8 8 8 5 4 5 5 5 5 5 5 5 4 4 3 3 2 2 1 1 1 2 2 3 4
3 4 8 6 6 5 4 3 4 5 2 1 3 5 5 5 7 8 10 10 10 8 5 5 5 5 5 6 6 5 5 5 4 4 3 2 2 1 1 1 1 2 3 3
8 6 5 6 4 5 5 6 5 4 3 3 2 5 4 3 3 4 6 7 8 10 9 7 6 6 6 6 6 6 5 5 4 4 3 2 2 1 0 0 1 1 2 3
6 5 4 5 5 7 6 7 6 4 1 3 1 3 7 3 4 5 5 6 7 7 7 7 7 7 7 7 6 5 5 5 4 4 4 5 3 2 2 1 1 1 2 2
6 5 6 6 7 8 7 3 4 3 3 1 1 2 8 2 5 7 7 8 8 8 9 9 8 8 6 6 6 5 5 4 4 4 5 5 3 2 1 1 1 1 1 1
5 4 6 7 5 6 4 5 6 5 4 2 4 5 7 5 7 6 6 7 8 8 8 8 6 6 5 5 5 5 5 4 4 4 4 4 4 3 2 2 1 0 0 0
3 4 3 4 3 2 5 6 3 3 2 6 3 4 8 7 6 6 7 7 6 7 8 8 8 7 6 6 5 5 5 4 3 4 4 4 4 4 4 3 2 1 1 1
3 5 4 4 6 6 6 9 7 5 5 4 1 6 7 5 4 3 3 3 4 6 7 8 8 8 7 7 6 5 5 4 4 4 3 3 3 3 3 3 3 2 2 2
6 6 4 3 4 8 6 5 7 6 3 1 5 6 7 2 2 0 1 3 4 6 7 7 7 7 6 6 6 6 6 4 4 4 3 3 2 2 2 2 2 2 1 1
7 4 4 2 3 2 6 9 6 6 6 4 5 4 5 5 4 2 2 4 4 5 6 6 6 6 6 6 5 5 5 5 4 4 4 3 2 2 2 2 2 1 1 1
5 5 3 0 5 6 4 5 5 5 5 6 4 7 6 7 6 5 5 5 6 6 6 6 5 5 5 5 5 5 5 4 4 3 3 3 2 2 2 2 2 2 2 2
3 5 4 6 4 3 5 7 8 6 5 5 5 7 5 4 4 4 4 3 4 5 5 5 5 5 5 5 5 5 5 5 5 4 4 3 3 3 2 2 2 2 2 2
4 5 2 3 2 1 2 3 5 6 5 5 5 7 2 2 2 3 4 3 4 4 4 4 5 5 5 5 5 5 4 4 4 4 4 4 3 3 2 2 2 2 2 2
4 4 6 9 7 5 4 3 5 6 5 5 8 8 4 2 2 3 4 4 4 4 5 5 4 4 5 5 5 5 4 3 4 4 4 4 3 3 3 2 2 2 3 3
4 3 4 5 4 4 4 6 7 6 8 8 8 7 7 7 6 5 5 5 5 4 4 5 5 4 4 4 4 4 4 3 4 4 4 3 3 3 3 3 3 3 3 3
3 3 2 1 3 4 3 5 7 7 6 6 5 6 4 2 4 5 6 6 6 5 5 5 4 4 5 4 4 4 4 4 4 5 4 2 3 3 3 3 3 3 3 3
1 3 3 2 2 1 4 6 7 5 3 6 7 7 3 3 5 7 7 8 7 6 6 6 6 5 5 5 5 5 4 4 4 4 4 3 3 3 3 4 4 4 3 3
5 4 3 2 2 5 6 2 5 5 3 3 3 3 5 5 4 3 4 7 6 6 6 6 5 4 4 4 4 5 5 5 5 4 4 3 3 3 3 4 4 4 3 3
5 6 4 3 4 4 3 1 3 5 3 2 4 2 2 3 3 1 2 4 5 6 6 5 5 4 4 4 5 5 5 5 5 5 4 4 4 4 3 4 4 3 3 3
3 4 4 3 4 6 5 2 1 4 2 2 4 4 4 5 3 3 3 4 4 4 4 4 4 4 4 4 4 6 6 6 5 5 4 4 4 4 4 4 4 4 4 4
3 2 3 4 3 5 4 4 1 5 5 2 3 4 5 4 4 3 3 3 4 4 4 5 5 4 4 4 5 5 5 5 5 4 4 4 4 4 4 4 4 4 4 4
4 3 4 4 3 5 3 1 3 4 1 1 2 3 3 2 1 2 3 4 5 4 4 5 5 4 3 4 6 5 4 4 4 4 4 4 3 3 4 5 4 5 5 5
3 4 4 5 4 3 1 1 1 2 2 1 2 2 3 3 2 2 2 3 4 4 4 4 5 5 3 3 5 5 3 4 5 5 4 3 3 3 4 5 5 4 4 4
1 1 2 1 2 1 2 2 1 1 2 1 2 2 3 3 3 2 2 3 3 3 4 4 5 5 3 3 3 4 3 4 5 5 4 3 3 3 3 3 4 4 4 4
2 1 1 1 2 2 3 2 1 2 2 2 1 0 2 4 3 3 3 3 3 3 3 4 5 4 3 3 2 2 4 5 5 4 4 3 3 3 2 2 2 4 4 5
1 2 3 3 4 3 3 3 1 2 2 1 1 2 1 3 4 3 3 2 3 4 4 4 4 4 4 3 2 2 3 5 5 4 4 3 2 3 3 2 1 1 2 3
Wind_Direction
112 108 192 205 190 185 176 187 242 261 266 221 244 256 262 234 201 199 197 197 193 201 195 169 170 171 162 164 169 174 170 164 156 161 169 171 197 216 192 189 190 190 189 182
70 232 220 192 177 176 189 224 257 289 320 206 267 277 266 228 209 201 195 197 195 189 175 165 159 164 165 173 176 174 174 172 175 180 176 164 164 183 193 192 192 196 191 191
186 227 183 161 170 183 212 201 219 241 334 8 348 317 295 272 233 221 205 197 192 186 184 177 168 170 166 174 180 180 177 172 174 160 134 116 90 65 72 192 212 214 200 198
219 232 166 172 195 171 233 220 203 205 151 293 49 278 284 270 261 238 219 201 197 190 182 176 170 172 175 180 171 166 166 164 156 146 148 149 157 176 208 203 212 214 196 197
229 194 175 200 209 174 211 202 175 179 169 270 309 196 279 294 256 245 225 212 204 192 185 181 180 178 173 167 157 154 153 152 151 157 165 161 157 165 150 142 135 156 190 182
235 223 193 202 202 179 157 80 61 57 86 244 229 185 267 240 229 235 223 215 208 191 183 180 175 159 150 144 137 141 147 154 156 159 163 163 160 153 150 152 142 175 206 187
288 274 240 178 152 133 114 99 46 3 6 246 238 198 247 250 237 219 219 219 205 183 178 176 169 165 161 158 155 153 154 157 155 160 170 175 168 165 179 179 169 176 197 217
196 264 231 190 178 177 170 146 160 191 216 264 250 228 252 260 268 243 210 190 174 171 175 177 176 175 175 171 168 163 160 163 160 169 175 176 170 171 182 169 166 179 203 214
182 240 268 217 176 143 143 174 164 139 163 228 265 276 297 278 313 295 134 132 163 172 175 174 169 170 173 170 171 167 164 164 166 166 157 156 162 164 155 143 141 146 179 193
165 218 268 248 103 93 148 146 109 132 160 226 272 263 250 261 250 240 189 174 175 171 174 172 169 168 169 167 163 159 165 168 166 159 160 156 162 163 138 134 140 146 164 152
152 178 275 125 175 177 119 122 124 134 160 166 229 263 232 227 220 201 201 189 178 178 179 174 165 158 155 152 155 156 157 152 149 155 150 143 138 130 124 137 159 160 152 148
152 142 223 248 251 195 163 165 147 160 206 181 181 259 277 228 197 177 180 171 166 167 166 158 153 146 147 155 160 159 160 161 168 165 155 154 141 130 132 142 148 139 133 135
143 128 130 336 341 55 148 159 155 138 135 161 179 255 312 46 114 148 154 149 146 144 138 135 141 151 158 165 163 163 167 170 166 160 154 150 151 150 149 140 117 112 131 132
137 140 176 199 209 191 192 182 155 137 160 196 215 237 268 236 193 176 158 150 141 144 146 146 156 164 164 165 164 166 169 166 162 154 149 156 164 161 152 134 126 131 132 130
117 167 201 225 227 194 201 194 183 186 188 191 225 225 238 221 203 189 169 156 144 148 158 163 169 169 169 168 165 166 167 164 158 149 153 173 165 152 140 131 129 124 121 125
89 163 166 255 241 202 213 213 197 206 201 208 209 238 241 196 153 156 166 167 165 169 174 173 173 167 171 175 176 171 167 159 146 146 157 160 155 146 137 131 123 113 107 107
117 140 141 227 261 125 233 219 201 200 203 189 208 225 172 164 180 185 183 181 182 185 183 181 182 180 179 176 171 174 168 146 141 144 146 146 141 139 142 140 126 121 118 107
153 137 146 169 136 212 237 225 178 174 204 201 203 202 182 187 191 188 180 180 181 184 185 188 189 181 171 164 161 156 148 146 146 145 145 142 138 139 142 137 136 133 121 117
166 148 142 150 185 251 277 222 163 163 227 201 195 199 168 140 88 1 188 179 188 190 186 187 182 172 160 159 157 148 148 150 152 160 165 165 153 147 150 154 154 144 132 121
96 126 137 148 170 218 238 276 279 117 234 222 180 178 164 130 153 240 205 175 174 177 172 164 151 140 147 157 148 147 156 158 169 177 175 170 163 161 170 172 160 150 143 138
94 100 156 169 201 256 276 296 118 159 228 228 172 173 167 181 208 216 171 165 162 163 161 150 147 152 161 152 144 151 155 172 179 168 160 158 161 161 161 152 149 145 136 128
169 156 177 157 182 248 321 85 158 208 186 140 156 158 162 174 173 159 167 163 155 148 144 144 146 148 145 147 146 152 170 180 158 151 150 151 151 151 145 139 136 135 136 134
188 191 184 184 204 257 301 217 232 162 154 172 165 184 155 152 152 133 146 153 155 153 151 146 143 138 134 142 146 154 176 157 146 143 148 147 143 139 140 143 147 142 142 148
262 145 139 175 263 298 344 346 21 108 155 187 188 189 171 164 163 142 134 145 153 153 153 143 138 143 150 155 154 155 156 153 148 151 153 147 142 136 129 139 154 159 164 167
264 162 135 198 276 348 345 349 19 42 55 59 51 142 167 156 161 158 154 164 168 162 155 147 148 156 171 166 160 155 149 146 145 149 148 147 152 151 142 149 172 177 192 186
262 192 177 214 226 196 259 295 7 53 48 61 53 27 43 152 156 154 159 174 174 165 154 152 155 164 167 158 161 161 159 152 150 150 154 158 161 159 155 150 117 94 179 181
Height
1480 1487 1492 1490 1489 1491 1492 1496 1498 1493 1486 1488 1490 1489 1485 1483 1484 1484 1485 1486 1488 1489 1492 1494 1496 1499 1501 1502 1504 1505 1507 1508 1509 1510 1511 1511 1512 1513 1515 1516 1517 1518 1519 1520
1485 1488 1482 1482 1485 1488 1491 1496 1497 1491 1485 1487 1489 1489 1483 1481 1481 1481 1482 1483 1484 1487 1490 1492 1494 1496 1498 1500 1501 1503 1505 1506 1507 1508 1509 1510 1511 1512 1513 1514 1515 1517 1518 1519
1483 1480 1477 1481 1485 1489 1491 1494 1494 1493 1488 1487 1489 1492 1486 1481 1479 1480 1480 1481 1482 1484 1487 1489 1491 1494 1496 1497 1499 1501 1502 1504 1506 1507 1508 1509 1510 1511 1512 1513 1514 1515 1516 1517
1479 1475 1476 1480 1483 1485 1493 1484 1486 1489 1496 1502 1495 1508 1490 1483 1480 1478 1478 1480 1481 1483 1485 1487 1489 1491 1493 1495 1497 1499 1501 1503 1504 1506 1506 1507 1508 1508 1509 1511 1512 1514 1515 1516
1476 1472 1474 1478 1477 1479 1482 1479 1483 1488 1495 1503 1500 1506 1497 1485 1482 1478 1476 1477 1479 1481 1483 1485 1487 1490 1492 1494 1496 1498 1500 1501 1503 1504 1505 1506 1507 1508 1509 1510 1511 1512 1513 1514
1471 1468 1469 1470 1470 1472 1475 1482 1488 1496 1503 1512 1502 1506 1501 1487 1479 1475 1474 1475 1476 1479 1481 1484 1486 1489 1491 1493 1495 1497 1499 1500 1502 1503 1504 1505 1506 1506 1507 1508 1509 1511 1512 1513
1474 1469 1466 1465 1471 1473 1477 1494 1511 1512 1519 1515 1499 1501 1495 1476 1471 1470 1470 1471 1473 1475 1479 1482 1484 1487 1489 1492 1493 1495 1497 1499 1500 1502 1503 1504 1505 1505 1506 1507 1508 1510 1511 1512
1482 1481 1467 1464 1468 1474 1479 1487 1509 1517 1520 1512 1500 1500 1485 1470 1468 1467 1468 1469 1470 1473 1476 1479 1482 1485 1487 1490 1492 1494 1495 1497 1499 1501 1502 1503 1504 1504 1505 1506 1507 1509 1510 1511
1481 1479 1463 1461 1461 1467 1479 1485 1485 1502 1506 1510 1504 1493 1478 1469 1467 1466 1467 1468 1470 1472 1475 1478 1481 1484 1486 1489 1491 1493 1494 1496 1498 1500 1501 1502 1503 1503 1504 1505 1507 1508 1509 1510
1469 1476 1465 1461 1461 1464 1468 1478 1492 1502 1512 1514 1502 1494 1488 1472 1469 1468 1468 1468 1469 1472 1474 1476 1479 1482 1485 1487 1490 1492 1494 1495 1497 1498 1499 1501 1502 1503 1504 1505 1506 1507 1508 1509
1464 1474 1470 1465 1466 1469 1473 1479 1486 1497 1500 1509 1510 1497 1471 1468 1466 1466 1467 1467 1468 1471 1473 1475 1478 1481 1483 1486 1489 1490 1493 1494 1495 1497 1498 1500 1501 1502 1504 1504 1505 1506 1508 1509
1463 1472 1478 1470 1462 1460 1464 1471 1481 1493 1497 1499 1502 1493 1464 1463 1462 1464 1466 1467 1468 1470 1472 1475 1478 1480 1483 1485 1488 1490 1492 1493 1495 1496 1498 1499 1500 1501 1503 1504 1505 1506 1507 1508
1462 1473 1482 1479 1474 1466 1466 1468 1472 1480 1491 1499 1499 1487 1463 1462 1462 1463 1465 1467 1468 1470 1472 1475 1477 1480 1482 1485 1487 1489 1491 1493 1494 1496 1497 1498 1499 1500 1502 1503 1504 1505 1507 1508
1457 1469 1476 1480 1474 1468 1467 1467 1470 1477 1489 1492 1486 1476 1466 1464 1464 1464 1465 1466 1468 1470 1472 1475 1477 1479 1482 1484 1486 1488 1490 1492 1493 1494 1496 1497 1498 1500 1501 1503 1504 1505 1506 1507
1456 1466 1466 1464 1460 1461 1462 1463 1466 1470 1473 1479 1474 1471 1464 1461 1461 1462 1464 1466 1468 1470 1472 1474 1476 1478 1481 1483 1485 1487 1489 1491 1492 1493 1494 1496 1498 1499 1500 1502 1503 1505 1506 1507
1458 1463 1463 1463 1459 1459 1461 1460 1461 1463 1464 1466 1465 1466 1459 1458 1460 1461 1463 1465 1467 1469 1471 1473 1475 1477 1479 1482 1484 1486 1488 1490 1492 1493 1494 1496 1497 1499 1500 1501 1503 1504 1505 1506
1461 1464 1468 1469 1462 1459 1465 1458 1458 1459 1459 1460 1463 1460 1457 1458 1458 1459 1460 1462 1464 1467 1469 1471 1473 1475 1478 1480 1482 1485 1487 1489 1491 1492 1494 1495 1497 1498 1500 1501 1502 1504 1505 1506
1461 1465 1470 1471 1468 1474 1460 1449 1450 1454 1455 1455 1454 1454 1455 1455 1456 1458 1459 1460 1462 1465 1468 1470 1472 1475 1477 1479 1481 1484 1486 1488 1490 1492 1493 1494 1496 1497 1499 1500 1502 1503 1504 1505
1455 1462 1469 1473 1471 1464 1454 1449 1450 1453 1456 1453 1453 1453 1453 1454 1456 1458 1459 1460 1461 1464 1466 1469 1471 1474 1476 1478 1480 1482 1484 1486 1488 1491 1492 1494 1495 1496 1498 1499 1500 1502 1503 1504
1455 1458 1466 1470 1469 1469 1455 1447 1446 1450 1457 1452 1451 1451 1452 1454 1459 1458 1457 1459 1461 1463 1466 1468 1471 1473 1475 1477 1479 1481 1483 1485 1487 1489 1491 1493 1494 1495 1496 1498 1499 1501 1502 1503
1459 1462 1464 1467 1466 1459 1450 1446 1446 1458 1455 1449 1449 1450 1451 1453 1454 1454 1455 1457 1459 1462 1464 1467 1469 1471 1473 1475 1477 1479 1481 1483 1486 1489 1490 1492 1493 1494 1495 1497 1498 1500 1501 1503
1458 1461 1463 1465 1466 1462 1448 1447 1450 1450 1447 1447 1448 1448 1450 1451 1451 1452 1454 1456 1458 1460 1463 1465 1468 1470 1472 1474 1476 1478 1480 1483 1486 1487 1489 1491 1492 1494 1495 1496 1497 1498 1500 1502
1456 1456 1456 1458 1458 1451 1447 1447 1447 1446 1446 1447 1447 1448 1449 1449 1450 1451 1453 1455 1458 1460 1462 1464 1466 1469 1471 1473 1476 1477 1480 1482 1484 1486 1488 1490 1491 1493 1494 1495 1496 1497 1499 1500
1452 1452 1453 1453 1451 1448 1447 1447 1446 1446 1446 1446 1446 1447 1448 1448 1449 1451 1453 1455 1457 1459 1461 1463 1465 1468 1470 1472 1474 1476 1479 1481 1483 1485 1487 1488 1490 1491 1492 1494 1495 1496 1497 1499
1452 1451 1452 1452 1450 1448 1447 1447 1446 1446 1446 1446 1446 1446 1447 1447 1448 1450 1452 1454 1456 1458 1460 1463 1464 1466 1469 1471 1473 1475 1477 1479 1481 1483 1485 1487 1488 1489 1491 1492 1493 1495 1496 1497
1451 1451 1452 1451 1448 1449 1448 1447 1446 1446 1446 1446 1446 1446 1446 1446 1447 1448 1451 1453 1455 1456 1459 1461 1463 1466 1468 1470 1472 1474 1476 1478 1479 1481 1483 1485 1486 1487 1489 1490 1491 1493 1494 1496